Location: Larkspur
(54.4391°N, 113.7691°W)
Time: 00:28:43
(UTC+00:00)

CZ-4C DEB - Pass Details

Date: 25 May 2024
Orbit: 605 x 614 km, 97.8° (Epoch: 21 June)

Event Time Altitude Azimuth Distance (km) Brightness Sun altitude
Exits shadow 05:21:14 12° 163° (SSE) 1,855 ? -9.5°
Maximum altitude 05:25:14 90° 83° (E) 625 ? -9.8°
Drops below altitude 10° 05:29:35 10° 345° (NNW) 1,991 ? -10.1°
Sets 05:31:47 0° 346° (NNW) 2,900 ? -10.2°
